Temperature
16 16 16 16 16 16 16 16 16 16 16 16 16 16 16 15 15 15 15 15 16 16 16 16 16 16 16 16 16 16 16 16 16 16 16 16 16 16 16 16 17 17 17
16 16 16 16 16 16 16 16 16 16 16 16 16 16 15 15 15 15 15 15 15 15 16 16 16 16 16 16 16 16 16 16 16 16 16 16 16 16 16 16 16 16 16
16 16 16 16 16 16 16 16 16 16 16 16 16 16 15 15 15 15 15 15 15 15 15 16 16 16 16 16 16 16 16 16 16 16 16 16 16 16 16 16 16 16 16
16 16 16 16 16 16 16 16 16 16 16 16 16 15 15 15 15 15 15 15 15 15 15 15 15 15 15 15 15 15 16 16 16 16 16 16 16 16 16 16 16 16 16
16 16 16 16 16 16 16 16 16 16 16 16 16 15 15 15 15 15 15 15 15 15 15 15 15 15 15 15 15 15 15 15 15 15 15 16 16 16 16 16 16 16 16
16 16 16 16 16 16 16 16 16 15 15 15 15 15 15 15 15 15 15 15 15 14 14 14 15 15 15 15 15 15 15 15 15 15 15 15 15 16 15 15 15 16 16
16 16 16 16 16 16 16 15 15 15 15 15 15 15 15 15 15 15 15 15 14 14 14 14 14 14 14 15 15 15 15 15 15 15 15 15 15 15 15 15 15 15 15
16 16 16 16 16 16 15 15 15 15 15 15 15 15 15 15 15 15 15 15 14 14 14 14 14 14 14 14 14 15 15 15 15 15 15 15 15 15 15 15 15 15 15
16 16 16 16 16 15 15 15 15 15 15 15 15 16 16 15 15 15 15 15 14 14 14 14 14 14 14 14 14 14 15 15 15 15 15 15 15 15 15 15 14 15 15
16 16 16 16 16 15 15 15 15 15 15 15 16 16 16 16 16 15 15 15 14 14 14 14 14 14 14 14 14 14 14 15 15 14 14 14 14 14 14 14 14 14 14
16 16 16 16 16 15 15 15 15 15 15 15 15 16 16 16 16 16 15 15 14 14 14 14 14 14 14 14 14 14 14 14 14 14 14 14 14 14 14 14 14 14 14
16 16 15 16 16 15 15 15 15 15 15 15 15 15 15 16 16 15 15 15 15 14 14 14 14 14 14 14 14 14 14 14 14 14 14 14 14 14 14 14 14 14 14
16 16 16 16 16 15 15 15 15 15 15 15 15 15 15 15 15 15 15 15 15 14 14 14 14 14 14 14 14 14 14 14 14 14 14 14 14 14 14 14 14 14 14
16 16 16 16 16 15 15 15 15 15 15 15 15 15 15 15 15 15 15 15 15 14 14 14 14 14 14 14 14 14 14 14 14 14 14 14 14 14 14 14 14 14 13
16 16 16 16 16 16 15 15 15 15 15 15 15 15 15 15 15 15 15 15 15 14 14 14 14 14 14 14 14 14 14 14 14 14 14 14 14 13 13 13 13 13 13
16 16 16 16 16 16 16 15 15 15 15 15 15 15 15 15 15 15 15 15 15 15 14 14 14 14 14 14 14 14 14 13 13 13 13 13 13 13 13 13 13 13 13
16 16 16 16 16 16 15 15 15 15 15 15 15 15 15 15 15 15 15 15 15 15 14 14 14 14 14 14 13 13 13 13 13 13 13 13 13 13 13 13 13 13 13
16 16 16 16 16 16 16 15 15 15 15 15 15 15 15 15 15 15 15 15 15 14 14 14 14 13 13 13 13 13 13 13 13 13 13 13 13 13 13 13 13 12 12
16 16 16 16 16 16 16 15 15 15 15 15 15 15 15 15 15 15 15 15 14 14 14 14 14 13 13 13 13 13 13 13 13 13 13 13 13 12 12 12 12 12 12
16 16 16 16 16 16 16 15 15 15 15 15 15 15 15 15 15 15 15 15 14 14 14 14 14 13 13 13 13 13 13 13 13 13 12 12 12 12 12 12 12 12 12
16 16 16 16 16 16 16 16 15 15 15 15 15 15 15 15 15 15 15 14 14 14 14 14 14 13 13 13 13 13 13 13 13 12 12 12 12 12 12 12 12 11 11
16 16 16 16 16 16 16 16 15 15 15 15 15 15 15 15 15 15 14 14 14 14 14 14 13 13 13 13 13 13 12 12 12 12 12 12 12 12 12 11 11 11 11
16 16 16 16 16 16 16 15 15 15 15 15 15 15 15 15 15 14 14 14 14 14 14 13 13 13 13 13 13 12 12 12 12 12 12 12 11 11 11 11 11 11 11
15 15 15 15 15 15 15 15 15 15 15 15 15 15 15 15 14 14 14 14 14 13 13 13 13 13 13 12 12 12 12 12 12 11 11 11 11 11 11 10 10 10 10
15 15 15 15 15 15 15 15 15 15 15 15 14 14 14 14 14 14 14 14 13 13 13 13 12 12 12 12 12 12 11 11 11 11 11 10 10 10 10 10 10 10 9
15 15 15 15 15 15 15 15 15 15 14 14 14 14 14 14 14 14 13 13 13 13 12 12 12 12 12 11 11 11 11 11 10 10 10 10 10 9 9 9 9 9 9
Wind_Speed
2 2 3 3 3 4 4 3 4 5 5 7 9 9 8 9 9 11 11 14 15 16 15 15 15 15 15 16 16 16 15 13 13 14 14 14 14 13 13 12 11 10 9
2 2 3 3 3 4 4 4 4 4 4 5 6 7 8 8 8 9 10 12 15 16 17 17 17 16 17 17 17 18 18 16 15 15 15 16 16 15 14 13 13 12 10
4 3 2 2 2 5 6 5 5 5 4 4 5 6 7 7 7 8 9 9 11 14 16 16 17 17 17 18 18 18 17 17 16 16 16 17 17 17 16 15 15 14 13
7 4 2 2 3 4 5 3 3 3 4 4 4 4 4 5 6 7 9 10 9 10 12 14 15 16 17 18 18 18 18 17 17 17 17 17 18 18 17 16 15 14 13
7 6 2 2 5 4 2 3 4 4 4 3 3 4 4 4 4 7 7 9 9 9 9 11 13 14 16 18 19 18 18 17 17 17 17 18 18 18 18 17 16 16 14
6 6 2 3 5 3 3 4 4 4 3 3 4 5 4 3 3 4 5 7 8 9 9 8 9 11 15 17 18 18 17 17 17 17 17 18 18 18 18 18 18 18 16
5 5 3 3 3 3 3 3 3 3 2 2 3 2 3 3 3 3 4 4 5 7 8 9 9 10 11 14 17 17 17 17 17 18 18 19 19 19 19 19 19 19 19
5 3 3 2 3 3 3 3 2 2 1 1 1 1 1 2 3 3 3 4 4 6 6 9 10 11 12 12 15 17 17 17 18 18 18 19 20 20 20 20 19 19 19
5 5 4 3 2 3 2 2 2 2 1 1 2 1 1 1 1 2 3 3 4 4 4 7 10 11 12 12 13 15 18 17 17 18 18 19 19 19 19 19 19 19 19
5 4 4 3 2 3 2 1 3 2 2 1 1 1 1 2 2 1 2 2 4 5 4 6 8 11 12 12 13 15 17 18 18 18 18 18 19 19 19 19 19 19 19
3 3 3 2 2 2 2 3 3 2 2 1 1 1 2 1 1 3 1 1 2 3 4 4 6 8 10 11 11 13 15 16 17 17 18 18 18 18 18 19 19 19 19
2 2 2 2 2 2 2 3 3 3 2 2 2 2 2 2 1 2 2 2 2 2 4 4 5 6 9 10 10 12 13 14 15 16 16 17 17 17 18 18 18 18 18
2 2 2 1 2 2 3 3 3 2 2 2 2 2 3 2 2 2 3 2 2 2 3 3 3 6 7 8 8 10 10 12 13 14 14 15 16 16 17 17 17 17 17
3 3 3 3 3 3 3 3 2 2 3 3 3 3 3 2 3 3 2 2 2 2 3 2 2 5 6 7 7 8 8 10 11 12 13 13 14 15 15 16 16 16 17
3 4 4 3 2 2 3 3 2 3 3 3 3 3 3 2 2 2 2 3 3 2 2 1 1 2 5 6 6 6 7 7 8 9 10 11 11 12 13 13 14 15 15
4 4 3 4 4 3 3 3 3 2 3 2 2 3 3 2 2 2 2 2 2 3 2 1 1 1 3 5 5 5 6 6 6 6 7 7 8 9 10 11 12 12 13
4 5 3 3 3 3 4 3 2 1 2 2 2 4 4 3 2 2 2 3 3 3 3 1 1 1 2 2 3 2 4 5 4 4 4 5 6 7 8 9 9 10 11
4 4 4 3 4 4 4 4 3 2 3 3 3 5 4 3 3 3 2 3 2 3 3 2 1 1 2 1 2 1 1 3 4 3 3 3 3 4 4 6 7 8 9
3 4 4 3 3 4 3 3 3 3 3 3 4 4 4 4 4 3 3 3 2 3 3 2 1 1 1 1 2 1 2 1 1 3 3 2 1 1 2 3 5 6 7
3 3 3 4 4 4 3 2 2 3 3 3 4 4 5 5 4 3 3 3 3 3 3 3 1 1 1 2 3 2 2 2 1 1 1 1 2 2 1 1 2 3 4
4 3 4 4 4 3 3 4 2 2 3 4 4 6 7 8 8 5 4 3 4 3 2 2 1 1 1 2 1 1 2 2 2 1 1 0 1 2 2 1 1 1 2
3 3 3 4 4 4 6 7 5 4 3 3 4 5 6 6 6 6 6 6 5 4 2 2 1 1 1 1 1 2 1 2 2 2 2 2 0 0 2 2 1 1 1
4 4 4 5 5 5 6 6 6 4 3 4 4 4 4 5 4 3 3 4 4 4 3 2 2 1 1 1 2 2 2 2 2 2 1 2 2 2 1 1 2 2 1
5 4 4 5 5 4 4 4 4 2 3 3 4 4 4 4 4 4 3 3 3 2 2 3 2 2 2 2 1 0 1 3 3 2 2 1 2 2 2 1 1 1 2
5 5 4 5 5 4 3 3 3 1 2 2 4 5 5 5 6 6 4 4 3 2 3 4 3 2 3 5 5 3 3 3 3 3 2 1 2 3 2 1 1 3 3
6 6 5 4 5 4 4 4 3 1 2 3 4 5 7 7 7 7 4 3 3 2 2 3 2 2 3 4 5 3 2 2 2 2 3 2 2 3 4 3 2 4 4
Wind_Direction
73 94 96 86 76 85 80 62 68 64 56 58 64 62 64 70 81 94 80 70 65 58 55 53 50 47 44 41 38 34 33 38 39 33 31 30 27 25 28 28 32 36 40
88 73 80 76 69 69 72 70 76 75 68 60 62 65 60 64 68 90 97 82 72 63 56 51 49 47 46 43 40 38 38 39 39 37 37 34 30 30 33 38 39 41 45
96 78 75 76 76 74 69 60 62 73 80 75 70 66 60 50 60 75 88 91 83 69 61 55 50 48 46 44 41 39 39 40 41 41 40 38 36 37 40 46 46 45 48
90 83 64 80 92 83 84 75 52 68 73 66 68 62 69 47 57 67 77 79 75 76 68 62 54 51 46 44 41 40 41 42 44 43 41 40 39 42 45 49 48 47 52
84 81 48 44 76 75 63 74 65 69 79 73 88 78 67 52 40 56 66 72 69 75 80 71 60 54 48 44 41 39 42 44 45 44 44 42 43 44 45 46 45 48 55
72 81 65 52 67 71 63 69 76 70 73 70 73 77 69 68 52 45 49 63 64 66 68 72 68 60 54 45 41 38 44 47 47 46 46 46 46 47 48 49 48 51 56
70 78 62 57 58 76 83 93 86 94 86 88 78 71 52 61 70 69 53 52 59 58 65 66 63 61 60 50 40 39 45 47 47 47 48 48 48 49 49 51 52 54 56
52 79 78 81 79 79 70 78 91 76 79 117 104 101 107 42 21 69 73 62 54 48 51 63 68 65 64 58 44 41 44 46 48 50 50 50 50 51 51 51 53 55 56
50 50 59 72 99 104 110 116 108 101 50 36 66 87 98 118 119 41 72 78 68 52 45 53 63 66 66 61 51 43 45 46 49 50 50 51 51 52 51 52 54 53 54
69 48 54 56 80 92 114 124 100 96 86 38 5 26 99 124 133 100 32 67 78 69 57 57 60 68 68 67 57 49 48 47 48 49 50 51 51 52 52 51 52 52 52
88 70 51 44 74 89 97 84 82 78 84 80 37 24 24 21 46 116 119 86 67 69 73 66 67 68 70 70 64 57 54 51 50 50 50 50 51 52 52 52 52 51 51
97 89 71 59 73 82 84 86 89 83 67 52 39 45 55 56 29 71 113 118 107 88 80 71 74 73 72 75 70 63 60 55 53 51 50 49 49 51 51 51 51 50 49
118 115 96 74 70 73 75 76 77 95 96 79 67 55 53 50 43 58 88 92 102 114 89 75 85 82 79 84 76 66 68 62 57 54 52 51 51 50 49 49 47 46 46
141 139 116 98 82 79 79 74 68 61 78 78 80 80 67 47 47 58 80 88 64 56 71 81 74 86 83 88 82 74 78 72 66 60 57 54 52 50 49 47 44 43 42
142 132 129 122 116 95 84 82 67 50 59 52 70 84 85 72 60 51 60 85 101 88 59 67 59 76 97 101 93 88 89 84 76 66 61 57 54 51 49 46 44 42 39
134 128 130 134 134 124 101 88 74 59 79 84 84 76 73 77 74 56 48 50 69 105 96 90 117 145 110 102 106 108 107 98 95 80 69 61 55 52 49 46 43 40 38
131 132 135 130 126 123 108 98 100 74 87 101 103 103 87 73 78 68 53 65 59 81 99 59 82 104 103 94 101 107 123 122 114 108 90 73 61 54 48 43 41 39 36
138 141 137 132 124 116 118 121 121 96 73 69 76 91 96 85 71 64 59 68 72 86 105 106 68 45 84 127 135 163 123 120 122 119 119 106 86 65 50 42 40 38 36
144 141 137 130 118 116 118 126 129 118 104 90 84 86 94 92 80 72 68 63 55 71 83 101 81 40 46 48 55 14 40 76 126 137 154 156 154 129 72 48 41 36 32
128 126 122 110 98 92 88 86 100 102 101 96 96 86 76 79 77 72 76 65 63 62 67 75 76 61 45 23 56 30 4 340 334 82 110 185 203 198 185 76 41 30 25
126 115 103 102 94 84 58 51 49 93 103 98 92 90 84 81 77 72 77 67 66 67 71 73 64 46 39 41 22 349 359 333 336 51 11 269 192 192 204 205 254 343 11
123 113 109 106 95 80 72 59 45 50 73 98 103 110 113 98 95 87 91 92 90 90 88 76 47 51 32 41 23 17 15 10 329 325 8 306 210 266 210 193 209 227 292
113 107 104 101 97 88 83 65 55 38 40 55 71 89 92 93 100 105 111 113 96 98 101 100 73 40 52 26 41 11 355 332 279 282 19 303 325 339 296 178 151 174 227
131 127 123 117 111 105 100 86 65 48 57 58 62 71 91 91 70 74 91 102 100 90 107 107 96 60 57 46 58 342 286 320 311 344 69 317 325 322 307 253 217 248 260
143 142 136 132 125 122 129 122 97 102 105 89 79 60 73 87 70 62 67 75 73 60 85 110 112 81 60 45 37 40 18 14 342 331 19 25 331 325 308 301 317 314 299
149 142 138 144 140 135 143 139 133 120 120 101 94 80 72 87 78 63 65 68 61 37 40 55 60 33 39 38 35 46 39 19 347 330 355 13 351 3 334 327 356 333 331
Height
1546 1547 1547 1547 1548 1548 1548 1548 1548 1548 1548 1549 1549 1549 1549 1549 1548 1548 1547 1547 1546 1545 1544 1543 1541 1540 1538 1536 1533 1528 1521 1520 1523 1524 1523 1521 1518 1515 1513 1512 1511 1510 1510
1547 1548 1548 1548 1549 1549 1549 1549 1550 1550 1550 1550 1550 1551 1551 1550 1550 1549 1549 1548 1547 1546 1545 1544 1542 1541 1539 1537 1534 1531 1527 1525 1525 1524 1523 1520 1517 1512 1509 1509 1510 1510 1509
1548 1549 1549 1549 1550 1550 1550 1550 1551 1551 1551 1551 1552 1552 1552 1552 1552 1551 1550 1550 1549 1548 1547 1546 1544 1542 1541 1539 1536 1533 1531 1529 1527 1526 1524 1521 1517 1512 1509 1508 1510 1510 1509
1549 1549 1550 1550 1551 1551 1551 1551 1552 1552 1553 1553 1553 1553 1554 1554 1554 1554 1553 1552 1551 1550 1549 1547 1546 1544 1542 1540 1538 1536 1534 1532 1529 1528 1526 1523 1519 1515 1511 1511 1511 1510 1509
1549 1550 1551 1551 1552 1552 1552 1553 1553 1553 1554 1554 1554 1555 1555 1555 1555 1555 1555 1554 1553 1552 1550 1549 1548 1546 1544 1542 1540 1538 1536 1534 1532 1530 1528 1526 1523 1519 1517 1515 1512 1509 1508
1550 1550 1551 1552 1552 1552 1553 1553 1554 1554 1555 1555 1556 1556 1556 1556 1556 1556 1556 1555 1555 1554 1552 1551 1550 1548 1546 1544 1542 1540 1538 1536 1535 1533 1531 1528 1526 1523 1520 1518 1515 1512 1510
1550 1551 1552 1552 1552 1553 1554 1554 1555 1555 1556 1556 1557 1557 1557 1558 1558 1558 1557 1557 1556 1555 1554 1553 1552 1550 1548 1546 1544 1542 1540 1539 1537 1535 1533 1531 1529 1526 1524 1522 1520 1517 1515
1551 1552 1552 1553 1553 1553 1554 1555 1555 1556 1557 1557 1558 1558 1558 1560 1559 1559 1559 1558 1558 1557 1556 1555 1554 1552 1550 1549 1547 1545 1543 1541 1540 1538 1536 1534 1532 1530 1528 1526 1524 1523 1521
1551 1552 1552 1553 1553 1554 1554 1555 1556 1557 1557 1558 1558 1559 1559 1560 1560 1561 1560 1560 1559 1559 1558 1557 1556 1554 1553 1551 1549 1547 1546 1544 1542 1541 1539 1537 1535 1534 1532 1530 1529 1527 1525
1552 1552 1553 1553 1554 1554 1555 1556 1556 1557 1557 1558 1558 1559 1559 1560 1560 1561 1562 1561 1561 1560 1559 1558 1557 1556 1555 1554 1552 1550 1549 1547 1545 1544 1542 1540 1539 1537 1535 1534 1532 1531 1529
1552 1552 1553 1554 1554 1555 1555 1556 1557 1557 1557 1558 1558 1559 1559 1560 1560 1561 1562 1563 1562 1561 1561 1560 1559 1558 1557 1556 1555 1553 1552 1550 1548 1547 1545 1543 1542 1540 1538 1537 1535 1534 1532
1552 1553 1553 1554 1555 1555 1556 1556 1557 1557 1558 1558 1559 1559 1559 1560 1560 1561 1561 1562 1562 1563 1562 1562 1561 1560 1559 1558 1557 1556 1554 1553 1551 1550 1548 1546 1545 1543 1541 1540 1538 1536 1535
1553 1554 1554 1555 1555 1556 1556 1557 1557 1558 1558 1558 1559 1559 1560 1560 1561 1561 1561 1562 1563 1563 1563 1563 1563 1562 1561 1560 1559 1558 1557 1555 1554 1552 1551 1549 1547 1546 1544 1542 1540 1539 1537
1553 1554 1555 1555 1556 1556 1557 1557 1557 1558 1558 1559 1559 1559 1560 1560 1561 1561 1562 1563 1563 1564 1565 1565 1564 1563 1562 1561 1560 1559 1558 1557 1556 1555 1553 1551 1550 1548 1546 1545 1543 1541 1539
1554 1555 1555 1556 1556 1557 1557 1558 1558 1558 1559 1559 1560 1560 1560 1561 1562 1562 1563 1563 1564 1564 1565 1566 1565 1565 1564 1563 1562 1561 1560 1559 1558 1557 1555 1554 1552 1550 1549 1547 1545 1543 1541
1554 1555 1556 1556 1557 1558 1558 1558 1559 1559 1560 1560 1561 1561 1561 1562 1562 1563 1564 1564 1564 1565 1565 1566 1566 1565 1565 1564 1563 1562 1561 1560 1559 1558 1557 1555 1554 1552 1550 1549 1547 1545 1543
1554 1555 1556 1557 1558 1558 1559 1559 1560 1560 1560 1561 1561 1562 1562 1562 1563 1563 1564 1564 1565 1565 1565 1566 1566 1566 1565 1565 1564 1563 1562 1561 1560 1559 1558 1557 1555 1553 1552 1550 1548 1546 1544
1554 1555 1557 1557 1558 1559 1559 1560 1560 1561 1561 1562 1562 1562 1563 1563 1563 1564 1564 1565 1565 1565 1566 1566 1566 1566 1566 1565 1564 1564 1563 1562 1561 1560 1559 1557 1556 1554 1553 1551 1549 1547 1545
1554 1556 1557 1558 1558 1559 1560 1560 1561 1561 1562 1562 1563 1563 1563 1564 1564 1564 1565 1565 1565 1565 1566 1566 1566 1566 1566 1565 1565 1564 1563 1562 1561 1560 1559 1558 1556 1555 1553 1551 1549 1547 1545
1554 1555 1557 1558 1558 1559 1560 1561 1561 1562 1563 1563 1563 1564 1564 1564 1564 1565 1565 1565 1565 1565 1566 1566 1566 1566 1566 1565 1565 1563 1563 1562 1561 1560 1559 1558 1556 1555 1553 1551 1550 1547 1545
1553 1555 1556 1557 1558 1559 1560 1561 1562 1562 1563 1564 1564 1564 1564 1565 1565 1565 1565 1565 1565 1565 1566 1566 1566 1565 1565 1564 1564 1563 1562 1561 1560 1560 1558 1557 1556 1554 1553 1551 1549 1547 1545
1553 1554 1555 1557 1558 1559 1560 1561 1562 1563 1563 1564 1564 1564 1565 1565 1565 1565 1565 1565 1566 1566 1565 1565 1565 1565 1564 1564 1563 1562 1561 1560 1559 1559 1558 1557 1555 1553 1552 1551 1549 1547 1545
1552 1554 1555 1556 1557 1558 1560 1561 1562 1562 1563 1564 1564 1564 1565 1565 1565 1565 1565 1565 1565 1565 1566 1565 1565 1564 1564 1563 1562 1561 1560 1559 1558 1557 1556 1555 1554 1553 1551 1550 1548 1546 1544
1551 1553 1554 1555 1556 1558 1559 1560 1561 1562 1563 1563 1564 1564 1565 1565 1565 1565 1565 1565 1565 1565 1565 1565 1564 1564 1563 1562 1561 1560 1559 1558 1557 1556 1555 1553 1552 1551 1550 1548 1547 1545 1543
1549 1551 1553 1554 1555 1557 1558 1559 1561 1561 1562 1563 1563 1564 1564 1564 1565 1565 1565 1565 1564 1564 1564 1564 1564 1563 1562 1561 1560 1559 1557 1556 1555 1554 1553 1552 1550 1548 1547 1546 1545 1543 1541
1548 1550 1551 1553 1555 1556 1558 1559 1560 1561 1561 1562 1563 1563 1564 1564 1564 1564 1564 1564 1564 1564 1563 1563 1562 1561 1561 1560 1559 1558 1556 1555 1554 1553 1552 1550 1548 1546 1545 1544 1543 1541 1539